METEOR 2-5 DEB

Satellite information

Favourite Embed

Satellite Type and Status

DEBRISIN ORBIT

Key statistics

Satellite METEOR 2-5 DEB at a glance.

Uptime

16786

Days in orbit

Revolutions

≈ 14.2

Per day

Orbit

LEO

Low Earth Orbit

Inclination

81.2

Latest

Satellite identification and parameters

Extended collection of information and parameters for METEOR 2-5 DEB.

Object identification

Identified? True

Debris? True

Object name: METEOR 2-5 DEB

International designator: 1979-095CT

Object number (NORAD): 45511

Object ID (CCSDS): 45511

Country: COMMONWEALTH OF INDEPENDENT STATES (CIS)

Current information (Y/N): Y

RCS size: SMALL

Orbital parameters

Period: 101.282 minutes

Inclination: 81.216 deg

SMA: 7197.506 km

Apoapsis: 826.85 km

Periapsis: 811.892 km

RAAN: 96.6595 deg

Eccentricy: 0.00103914

Argument of periapsis: 145.2845 deg

Mean anomaly: 214.9012 deg

Mean motion: 14.21771169 rev/day

Mean motion (dot): 0.00002497 rev/day2

B* drag term: 0.0011293199 1/REarth

Two-line elements (TLE)

Creation date: Oct. 11, 2025, 2:58 a.m.

Reference frame: TEME

Reference center: EARTH

Epoch: Oct. 10, 2025, 5:48 p.m. UTC

TLE line 0: 0 METEOR 2-5 DEB

TLE line 1: 1 45511U 79095CT 25283.74171601 .00002497 00000-0 11293-2 0 9993

TLE line 2: 2 45511 81.2160 96.6595 0010391 145.2845 214.9012 14.21771169404285

Live tracking on map

Real-time ground track for satellite METEOR 2-5 DEB.

In-orbit conjunctions

A list of the most updated potential collisions computed for object METEOR 2-5 DEB.

Target Orbit TCA Probability of collision Miss distance Type
CZ-6A DEB SSO 2025-10-05 03:57:22 0.0001160719 110.0 (m) DEBRIS
DMSP 5D-2 F11 DEB SSO 2025-09-21 16:26:30 0.0007884654 46.0 (m) DEBRIS
CZ-6A DEB SSO 2025-04-17 12:43:21 0.0003528921 138.0 (m) DEBRIS
FENGYUN 1C DEB SSO 2024-11-12 21:54:47 0.000140112 386.0 (m) DEBRIS
FENGYUN 1C DEB SSO 2024-11-07 18:06:09 0.0001241278 361.0 (m) DEBRIS

Associated space launch

Second generation soviet meteorological satellite

METEOR 2-5 DEB was lifted into orbit during the mission ‘Vostok 8A92M | Meteor-2 5’, on board a Vostok 8A92M space rocket.

The launch took place on Oct. 31, 1979, 9:25 a.m. from 43/4 (43R).

For more information about the launch, click the button.

Launch to space Vostok 8A92M | Meteor-2 5
Vostok 8A92M | Meteor-2 5

Agency: N/A

Status: Launch Successful

Launch date: Oct. 31, 1979, 9:25 a.m. UTC

Rocket: Vostok 8A92M

Launch pad: 43/4 (43R)

Location: Plesetsk Cosmodrome, Russian Federation

...

Latest news about this satellite

There are no fresh news available about this satellite. Check back as we update our databases every day.


Newsletter sign-up

Weekly statistics, charts and insights to help you stay on top of the space industry.